sat.trackr.live / text

‹ back to catalog

RADARSAT-2

NORAD 32382 · 2007-061A

PAYLOAD ACTIVE UNKNOWN

§ Identity

Operator
Country
CA
Launch date
2007-12-14
Launch site
TYMSC
Launch vehicle
Mass (kg)
RCS (m²)
8.38

Purposes: earth_obs

External: N2YO · Heavens-Above · Gunter

§ Orbital elements

Epoch: 2026-05-25T03:46:34.360032Z

Period
100.70 min
Inclination
98.5787°
Eccentricity
0.0001275
Mean motion
14.29982710 rev/d
Perigee alt
790.9 km
Apogee alt
792.7 km
Semi-major
7,169.9 km
B*
3.8571e-5
RAAN
152.4194°
Arg perigee
83.8470°
Mean anomaly
276.2857°
Rev number
96,266

§ Raw data

RADARSAT-21 32382U 07061A   26145.15734213  .00000056  00000+0  38571-4 0  99942 32382  98.5787 152.4194 0001275  83.8470 276.2857 14.29982710962664

JSON: /api/v1/satellites/32382 · /tle

For live sub-satellite position, see the globe view (requires WebGL).

§ Visibility from observer

Set your observer location to see the next 7 days of passes ≥ 10°. The values pass through the URL so the page stays shareable.

No JS? Fill the form by hand. The geolocation button needs JavaScript.

§ Radio — SatNOGS DB

ModeDescriptionDownlinkUplink
FM S-band telemetry 2.230 GHz

1 transmitter · refreshed weekly from db.satnogs.org